Regional Weather Roundup
Issued by NWS Goodland, KS

Home | Current Version | Previous Version | Graphics & Text | Print | Product List | Glossary On
Versions: 1 2 3 4 5 6 7 8 9 10 11 12 13 14 15 16 17 18 19 20 21 22 23 24 25 26 27 28 29 30 31 32 33 34 35 36 37 38 39 40 41 42 43 44 45 46 47 48 49 50
000
ASUS43 KGLD 172308
RWRGLD

GOODLAND FORECAST AREA HOURLY WEATHER ROUNDUP
NATIONAL WEATHER SERVICE GOODLAND KS
400 PM MST WED JAN 17 2018

...OFFICIAL OBSERVATIONS...

CITY           SKY/WX    TMP DP  RH WIND       PRES   REMARKS
GOODLAND KS    CLEAR     49   5  16 CALM      30.25S
HILL CITY KS   CLEAR     39  15  37 S5        30.32F
IMPERIAL NEB   CLEAR     44  16  32 NW6       30.25S
MCCOOK NEB     CLEAR     39  21  48 S3        30.28S
AKRON CO       CLEAR     46  16  30 N14       30.25S
BURLINGTON CO  CLEAR     49   4  16 N5        30.26R
LIMON CO       CLEAR     47   5  18 N7        30.27R
$$

...UNOFFICIAL OBSERVATIONS...

CITY           SKY/WX    TMP DP  RH WIND       PRES   REMARKS
COLBY KS       CLEAR     45  18  33 CALM      30.27S
LENORA KS        N/A     36  32  85 S5          N/A
NORTON KS      CLEAR     36  10  35 SE8       30.30
SHARON SPRINGS   N/A     51  11  20 CALM        N/A
TRENTON NEB      N/A     43  32  65 CALM        N/A
KIT CARSON CO    N/A     50   4  15 CALM        N/A
YUMA CO        FAIR      46  10  23 NW12      30.24S
$$




USA.gov is the U.S. government's official web portal to all federal, state and local government web resources and services.